SCP
-0 0 -0 0 0 0 0 -0 -0 -0 0 0 -0 -0 -0 -0 -0 -0 -0 -0 -0 -0 -0 -0 -0 -0 -0 -0 -1 -0 -0 -1 -0 -0 0 0 -0 -0 0 0 -0 0 -0 -0
-0 -0 0 -0 0 0 0 -0 0 0 0 -0 -0 -0 -0 -0 -0 -0 -0 -0 -0 -0 -0 -0 -0 -0 -0 -1 -0 -0 -0 -0 -0 -0 -0 0 0 -0 0 -0 0 -0 -0 -0
0 0 0 0 0 -0 0 -0 0 0 -0 -0 0 -0 -0 -0 -0 -0 -0 -0 0 0 -0 -0 -0 -0 -0 -1 -0 -0 -0 -0 -0 -0 -0 -0 0 0 0 0 -0 -0 0 -0
0 -0 0 -0 0 -0 0 0 0 0 0 -0 -0 0 0 0 -0 -0 -0 -0 0 0 -0 -0 -0 -0 -0 -1 -0 -0 0 -0 -0 -0 0 -0 0 0 0 0 0 0 -0 -0
0 0 0 0 0 0 0 0 0 0 0 -0 -0 0 0 0 -0 -0 -0 -0 -0 -0 -0 -0 -0 -0 -0 -0 -1 -1 0 0 -0 -0 -0 0 -0 -0 0 -0 -0 -0 -0 0
-0 -0 0 0 0 -0 0 0 0 0 0 -0 -0 -0 0 1 0 0 -0 -0 -0 -0 -0 -1 -0 -0 -0 -0 -0 -0 -0 -0 0 -1 -0 -0 0 0 0 -0 -0 -0 0 0
-0 0 0 0 -0 0 0 -0 0 -0 0 -0 0 0 0 0 0 0 -0 -0 -0 0 -0 -0 -0 -0 -0 -0 -0 -0 -1 -1 -0 -0 0 -0 0 0 0 0 0 0 -0 0
-0 -0 -0 -0 0 0 0 -0 -0 0 0 0 0 0 0 0 0 -0 -0 0 0 0 0 -0 -0 -0 -0 -0 0 0 -1 -0 0 -0 0 0 0 0 0 0 0 0 -0 0
0 -0 -0 -0 0 0 0 0 0 0 -0 0 0 0 0 0 -0 -0 0 -0 -0 -0 0 0 -0 -0 0 0 0 0 -0 0 -0 0 1 0 1 1 0 1 1 1 1 0
-0 -0 -0 -0 -0 0 0 -0 0 0 -0 0 0 0 1 0 0 -0 0 0 0 0 0 0 0 1 1 1 0 1 0 0 0 1 1 1 1 1 1 1 1 1 0 0
-0 0 0 0 0 0 0 0 0 -0 0 0 0 0 0 0 0 -0 -0 0 0 0 1 2 2 2 1 1 1 1 2 3 2 2 3 3 2 1 1 1 1 1 1 1
0 -0 0 0 -0 -0 0 0 0 0 0 0 0 -0 0 0 0 0 0 0 0 0 1 1 2 4 5 6 7 7 4 4 3 2 2 2 1 1 1 1 1 1 1 1
0 0 0 0 0 0 0 -0 0 0 0 0 -0 -0 0 0 0 -0 -0 -0 1 1 1 1 2 3 4 3 4 5 4 2 2 1 0 1 1 1 1 1 1 2 2 2
0 0 0 0 0 0 0 0 -0 0 0 0 -0 -0 0 0 -0 -0 1 0 0 1 1 1 1 2 1 2 2 2 2 2 2 2 2 3 2 2 1 1 2 2 2 2
0 0 0 -0 -0 0 -0 0 -0 0 0 0 0 0 0 0 0 0 -0 -0 0 1 1 1 1 1 2 2 2 2 2 2 2 2 2 2 2 2 2 2 1 2 2 1
-0 0 0 -0 0 -0 -0 -0 0 0 0 -0 0 -0 0 0 0 0 2 1 1 0 1 1 1 1 1 1 1 1 1 1 1 1 1 1 2 2 2 2 2 2 1 1
-0 0 0 -0 -0 -0 -0 -0 0 0 0 0 0 0 0 0 0 1 2 1 1 1 1 1 1 1 1 0 0 0 1 1 1 1 1 1 1 1 2 2 2 2 1 1
0 0 0 0 0 0 0 0 0 0 0 0 0 0 0 1 0 0 1 2 2 2 2 1 1 1 0 0 0 1 1 3 2 1 2 1 2 2 2 2 2 2 1 1
0 0 0 0 0 0 0 0 0 0 0 0 0 0 0 0 0 1 1 1 1 1 1 1 0 0 0 0 1 1 1 1 2 1 2 3 3 3 3 2 1 1 1 1
0 0 0 0 0 0 -0 0 0 0 0 0 0 0 0 0 0 1 1 1 0 0 0 0 0 0 0 1 1 1 1 1 2 2 2 3 2 2 1 1 0 0 0 0
0 0 0 0 0 0 0 0 0 0 0 0 0 0 0 0 1 0 0 0 0 0 0 0 0 0 0 0 0 1 1 0 2 2 2 2 2 1 1 0 0 0 0 0
0 0 0 -0 0 0 0 0 0 0 0 0 0 0 0 0 0 0 0 0 0 0 0 0 0 0 0 1 1 1 1 1 0 0 0 0 1 0 0 0 0 0 0 0
0 0 0 0 0 0 0 0 0 0 0 0 0 0 0 0 0 0 0 0 0 0 0 0 0 0 0 0 0 0 0 0 0 0 0 0 0 0 0 0 0 0 0 0
0 0 0 0 0 0 0 0 0 0 0 0 0 0 0 0 0 0 0 0 0 0 0 0 0 0 0 0 0 0 0 0 0 0 0 0 0 0 0 0 0 0 0 0
0 0 0 0 0 0 0 0 0 0 0 0 0 0 0 0 0 0 0 0 0 0 0 0 0 0 0 0 0 0 0 0 0 0 0 0 0 0 0 0 0 0 0 0
0 0 0 0 0 0 0 0 0 0 0 0 0 0 0 0 0 0 0 0 0 0 0 0 0 0 0 0 0 0 0 0 0 0 0 0 0 0 0 0 0 0 0 0
Wind_Speed_500mb
36 28 33 40 10 10 19 15 11 18 18 10 12 27 35 36 38 39 47 44 43 28 39 37 45 40 41 30 35 33 31 33 31 27 24 26 19 20 22 11 10 22 21 22
28 35 18 25 4 11 20 12 14 20 21 17 19 22 39 34 29 38 57 40 41 41 33 31 41 43 35 39 34 36 38 37 38 27 26 17 16 15 45 20 13 17 26 32
25 32 21 20 13 18 20 27 15 20 21 19 14 12 34 36 31 37 33 43 33 32 39 41 37 39 35 41 39 38 36 36 28 29 23 22 20 17 16 20 24 25 22 24
27 54 17 20 18 25 23 27 8 8 16 19 32 20 20 23 29 27 39 78 70 55 44 45 40 36 32 40 35 40 37 39 28 28 26 22 21 17 23 13 8 16 18 21
24 22 30 20 20 25 3 23 15 14 21 31 35 24 31 29 21 26 36 48 66 74 53 43 39 35 37 37 36 39 36 36 31 27 26 27 22 18 13 21 16 12 25 30
33 22 28 12 29 32 10 7 24 22 22 23 33 34 28 14 3 14 35 31 68 58 46 45 37 37 38 37 37 37 39 36 33 36 25 26 27 25 14 15 19 15 26 30
26 19 20 33 35 19 21 22 19 22 23 26 23 23 8 20 10 18 46 51 35 33 46 51 46 44 37 40 36 35 37 34 33 31 27 22 27 29 22 22 17 18 25 28
25 24 26 23 24 17 28 34 23 22 8 15 29 11 9 30 65 80 70 31 32 37 52 52 52 51 42 40 34 32 34 29 28 27 25 22 22 22 23 26 25 27 31 26
18 27 41 33 27 27 25 26 29 32 35 6 6 17 47 20 24 56 30 35 40 43 26 60 53 48 43 40 34 31 34 25 22 23 22 23 26 27 23 26 25 24 26 26
32 24 39 34 28 28 29 32 24 18 22 14 10 3 19 15 37 58 27 37 35 29 25 31 33 29 30 29 32 31 30 23 22 21 24 20 20 20 19 19 26 27 25 28
31 10 3 24 9 27 24 27 28 34 11 3 7 7 24 29 19 50 68 23 24 28 25 21 18 17 18 19 25 29 23 24 15 21 24 19 21 14 8 12 18 19 21 25
28 24 14 21 31 40 22 28 19 17 8 21 8 20 26 35 48 43 47 36 39 44 38 31 26 25 27 25 26 24 24 27 22 21 18 13 8 11 7 16 14 13 18 26
17 9 8 17 37 43 18 42 21 19 23 16 18 5 26 22 53 35 35 36 36 37 36 40 33 26 26 24 24 27 23 19 18 12 11 14 8 2 4 11 14 16 29 34
11 5 19 10 13 28 27 34 36 14 18 27 24 25 35 34 21 79 31 36 42 39 37 37 36 31 31 31 30 28 26 27 23 19 16 11 5 10 19 28 33 38 37 38
9 22 30 14 33 46 38 5 46 19 21 23 30 37 39 51 52 59 64 44 32 30 28 31 26 23 26 26 24 20 15 14 8 5 6 11 18 27 36 41 41 41 40 40
15 18 39 37 44 56 59 36 30 28 28 32 26 25 31 35 50 65 49 51 40 37 31 26 25 19 18 15 12 9 5 7 6 14 15 17 24 30 35 37 40 43 45 46
17 16 13 22 26 37 47 41 9 14 23 21 18 21 23 23 19 22 45 42 42 32 37 20 21 15 14 9 5 10 10 7 13 17 25 27 29 33 37 40 43 47 50 50
7 3 11 16 20 24 28 12 1 10 16 18 7 16 19 20 19 32 38 38 32 29 28 15 13 13 10 10 8 12 16 20 28 32 33 39 40 41 43 43 44 47 51 54
19 10 8 12 20 29 28 13 7 1 11 13 0 11 5 12 5 32 32 30 23 17 20 6 11 11 13 16 22 26 28 31 36 39 36 35 38 40 42 44 51 60 62 61
6 16 11 18 21 30 32 18 19 16 9 21 9 13 17 4 6 16 23 28 19 11 5 4 9 10 16 25 30 34 35 34 36 44 44 41 47 55 63 71 79 78 67 63
12 9 13 16 21 19 10 20 10 9 9 15 11 13 9 20 25 16 19 20 15 17 17 18 20 24 27 29 31 36 41 41 43 42 42 47 53 61 76 74 64 66 68 70
16 17 17 21 25 13 23 8 6 9 13 15 24 24 23 24 13 9 11 11 14 18 22 24 28 31 31 33 32 35 36 43 50 53 59 64 69 74 69 73 69 65 68 64
11 8 11 12 8 8 14 14 12 20 22 16 17 19 13 10 13 14 15 19 22 24 29 28 27 29 31 35 36 35 41 44 47 59 63 70 68 58 54 63 63 55 59 56
8 14 5 13 15 11 10 9 11 16 24 20 20 15 11 10 12 16 18 21 23 23 23 26 29 32 37 45 53 51 53 55 55 53 50 54 57 63 64 63 59 57 60 61
9 4 3 11 18 15 11 14 18 22 19 19 14 11 10 10 13 16 18 19 20 23 23 26 27 31 37 41 42 44 48 52 54 62 60 65 62 67 72 69 65 62 62 57
18 12 16 7 19 12 23 25 19 17 15 11 6 6 8 9 11 14 15 16 16 23 24 25 27 34 38 44 44 45 46 53 57 60 61 65 72 74 74 74 77 71 67 67
Wind_Direction_500mb
217 240 242 37 340 118 272 189 144 112 137 244 245 156 164 182 181 166 167 164 163 173 169 164 169 166 172 173 179 188 184 198 196 214 223 221 239 254 259 269 206 219 209 229
239 241 79 270 165 192 232 233 229 148 160 216 221 188 160 184 202 173 125 238 165 166 157 156 174 174 180 180 191 195 194 208 214 214 227 227 219 217 240 234 252 206 237 225
222 250 226 227 213 233 239 252 113 292 168 214 267 242 161 183 190 175 183 124 257 190 162 167 176 180 182 185 191 202 205 214 217 197 234 235 230 227 183 238 230 241 236 248
244 231 261 212 244 224 225 330 91 240 275 249 197 218 204 181 178 206 191 143 183 214 164 168 174 180 181 183 187 204 211 212 224 205 210 243 253 238 226 258 216 229 253 231
234 242 224 239 239 243 126 225 281 256 252 254 249 222 178 165 207 190 217 175 161 261 163 165 174 178 180 180 186 200 215 215 209 237 219 232 266 268 284 269 245 225 236 249
267 243 244 219 236 238 85 264 231 231 242 261 259 226 149 144 128 330 215 203 164 203 158 161 175 169 176 176 184 192 211 218 213 226 231 223 239 253 266 258 232 277 277 284
228 231 219 219 209 191 240 249 251 224 222 235 354 334 134 144 38 297 275 197 203 189 167 168 168 164 174 173 182 190 213 221 220 220 232 235 230 254 261 264 271 252 269 299
206 193 206 224 259 195 209 232 254 281 293 292 310 48 189 150 155 220 257 202 210 219 182 174 168 166 167 172 181 188 209 221 216 218 221 228 250 260 268 282 289 280 283 297
222 235 177 205 209 259 263 256 284 291 284 223 65 34 13 333 259 226 188 198 198 216 199 172 157 168 162 171 180 189 206 212 213 220 229 233 246 253 239 255 261 291 301 310
274 235 167 196 207 218 250 275 298 235 259 262 339 308 196 32 316 320 180 189 178 177 125 134 145 128 151 174 182 190 205 207 206 214 231 238 254 261 275 266 282 280 288 306
270 276 324 333 190 251 221 250 261 275 308 315 185 224 156 155 135 251 251 158 134 128 126 127 129 154 169 182 181 179 177 183 204 202 195 208 220 241 268 269 299 335 335 325
253 324 168 263 321 272 235 225 264 265 17 316 214 244 176 172 157 232 251 159 152 139 132 134 130 136 138 127 130 137 154 160 182 206 222 189 175 204 242 311 331 314 289 292
345 49 100 353 331 339 347 343 279 301 297 218 256 64 148 17 325 285 139 113 107 116 128 125 123 113 112 116 120 125 120 129 130 126 121 161 145 334 299 278 266 271 276 291
344 286 110 154 228 283 297 339 327 322 313 335 324 54 125 143 225 283 113 119 123 123 125 120 118 126 127 135 133 128 131 145 150 151 166 153 196 254 252 258 267 270 276 279
265 128 110 204 200 224 246 312 272 310 318 314 319 320 156 180 180 213 149 135 129 125 125 122 130 137 138 135 134 133 138 148 162 208 257 280 281 283 287 290 288 286 280 277
240 252 156 179 177 209 241 265 274 298 293 280 294 304 21 69 158 161 129 141 150 145 144 151 151 161 156 149 146 152 177 227 262 294 304 287 275 275 279 280 282 285 287 289
242 295 53 289 190 205 224 236 300 337 347 351 313 34 12 355 22 131 143 147 145 147 130 173 164 176 184 179 199 269 263 241 284 282 284 285 285 283 282 286 290 291 295 296
117 248 311 306 309 281 281 71 5 303 300 293 335 15 35 9 9 61 105 111 114 126 129 173 161 171 202 245 274 312 299 299 296 291 287 291 288 286 285 284 284 287 291 288
338 344 307 304 294 300 302 358 157 213 344 111 114 96 97 41 2 65 94 113 122 139 147 150 243 253 282 294 300 299 294 289 289 288 290 290 290 287 284 286 290 293 292 290
1 354 314 292 294 291 298 109 81 82 315 125 118 93 76 23 70 65 68 77 89 100 113 245 286 318 306 303 300 296 293 292 292 292 292 287 287 289 292 294 296 297 297 295
329 336 286 288 287 267 37 99 107 255 73 89 83 134 139 84 87 89 61 49 27 9 355 338 322 307 303 305 302 299 302 301 292 290 286 283 283 288 291 294 295 293 290 288
312 282 273 271 268 240 17 65 343 94 107 91 65 62 71 90 92 69 46 16 349 335 330 322 317 320 319 317 307 298 298 294 291 290 289 295 294 292 289 292 293 291 293 295
294 284 311 336 46 71 21 51 61 105 99 87 93 83 58 45 40 25 357 343 337 335 332 328 320 308 295 297 299 309 293 293 298 294 294 294 295 292 298 298 298 300 299 295
255 187 229 294 124 124 103 103 94 101 103 93 80 82 66 31 5 347 340 331 327 327 326 326 325 325 317 304 298 297 300 298 298 299 305 305 297 296 298 295 292 292 291 292
356 100 200 250 145 140 147 129 110 99 96 88 85 66 47 12 345 341 335 335 329 329 324 329 326 321 319 319 315 316 315 305 300 293 298 299 300 299 297 295 293 291 289 291
249 261 246 293 128 186 160 140 143 133 119 96 58 38 26 4 351 341 339 340 334 332 331 328 323 316 312 308 313 312 312 313 313 310 304 302 302 301 298 296 292 286 284 286
Wind_Speed_850mb
36 28 33 40 10 10 19 15 11 18 18 10 12 27 35 36 38 39 47 44 43 28 39 37 45 40 41 30 35 33 31 33 31 27 24 26 19 20 22 11 10 22 21 22
28 35 18 25 4 11 20 12 14 20 21 17 19 22 39 34 29 38 57 40 41 41 33 31 41 43 35 39 34 36 38 37 38 27 26 17 16 15 45 20 13 17 26 32
25 32 21 20 13 18 20 27 15 20 21 19 14 12 34 36 31 37 33 43 33 32 39 41 37 39 35 41 39 38 36 36 28 29 23 22 20 17 16 20 24 25 22 24
27 54 17 20 18 25 23 27 8 8 16 19 32 20 20 23 29 27 39 78 70 55 44 45 40 36 32 40 35 40 37 39 28 28 26 22 21 17 23 13 8 16 18 21
24 22 30 20 20 25 3 23 15 14 21 31 35 24 31 29 21 26 36 48 66 74 53 43 39 35 37 37 36 39 36 36 31 27 26 27 22 18 13 21 16 12 25 30
33 22 28 12 29 32 10 7 24 22 22 23 33 34 28 14 3 14 35 31 68 58 46 45 37 37 38 37 37 37 39 36 33 36 25 26 27 25 14 15 19 15 26 30
26 19 20 33 35 19 21 22 19 22 23 26 23 23 8 20 10 18 46 51 35 33 46 51 46 44 37 40 36 35 37 34 33 31 27 22 27 29 22 22 17 18 25 28
25 24 26 23 24 17 28 34 23 22 8 15 29 11 9 30 65 80 70 31 32 37 52 52 52 51 42 40 34 32 34 29 28 27 25 22 22 22 23 26 25 27 31 26
18 27 41 33 27 27 25 26 29 32 35 6 6 17 47 20 24 56 30 35 40 43 26 60 53 48 43 40 34 31 34 25 22 23 22 23 26 27 23 26 25 24 26 26
32 24 39 34 28 28 29 32 24 18 22 14 10 3 19 15 37 58 27 37 35 29 25 31 33 29 30 29 32 31 30 23 22 21 24 20 20 20 19 19 26 27 25 28
31 10 3 24 9 27 24 27 28 34 11 3 7 7 24 29 19 50 68 23 24 28 25 21 18 17 18 19 25 29 23 24 15 21 24 19 21 14 8 12 18 19 21 25
28 24 14 21 31 40 22 28 19 17 8 21 8 20 26 35 48 43 47 36 39 44 38 31 26 25 27 25 26 24 24 27 22 21 18 13 8 11 7 16 14 13 18 26
17 9 8 17 37 43 18 42 21 19 23 16 18 5 26 22 53 35 35 36 36 37 36 40 33 26 26 24 24 27 23 19 18 12 11 14 8 2 4 11 14 16 29 34
11 5 19 10 13 28 27 34 36 14 18 27 24 25 35 34 21 79 31 36 42 39 37 37 36 31 31 31 30 28 26 27 23 19 16 11 5 10 19 28 33 38 37 38
9 22 30 14 33 46 38 5 46 19 21 23 30 37 39 51 52 59 64 44 32 30 28 31 26 23 26 26 24 20 15 14 8 5 6 11 18 27 36 41 41 41 40 40
15 18 39 37 44 56 59 36 30 28 28 32 26 25 31 35 50 65 49 51 40 37 31 26 25 19 18 15 12 9 5 7 6 14 15 17 24 30 35 37 40 43 45 46
17 16 13 22 26 37 47 41 9 14 23 21 18 21 23 23 19 22 45 42 42 32 37 20 21 15 14 9 5 10 10 7 13 17 25 27 29 33 37 40 43 47 50 50
7 3 11 16 20 24 28 12 1 10 16 18 7 16 19 20 19 32 38 38 32 29 28 15 13 13 10 10 8 12 16 20 28 32 33 39 40 41 43 43 44 47 51 54
19 10 8 12 20 29 28 13 7 1 11 13 0 11 5 12 5 32 32 30 23 17 20 6 11 11 13 16 22 26 28 31 36 39 36 35 38 40 42 44 51 60 62 61
6 16 11 18 21 30 32 18 19 16 9 21 9 13 17 4 6 16 23 28 19 11 5 4 9 10 16 25 30 34 35 34 36 44 44 41 47 55 63 71 79 78 67 63
12 9 13 16 21 19 10 20 10 9 9 15 11 13 9 20 25 16 19 20 15 17 17 18 20 24 27 29 31 36 41 41 43 42 42 47 53 61 76 74 64 66 68 70
16 17 17 21 25 13 23 8 6 9 13 15 24 24 23 24 13 9 11 11 14 18 22 24 28 31 31 33 32 35 36 43 50 53 59 64 69 74 69 73 69 65 68 64
11 8 11 12 8 8 14 14 12 20 22 16 17 19 13 10 13 14 15 19 22 24 29 28 27 29 31 35 36 35 41 44 47 59 63 70 68 58 54 63 63 55 59 56
8 14 5 13 15 11 10 9 11 16 24 20 20 15 11 10 12 16 18 21 23 23 23 26 29 32 37 45 53 51 53 55 55 53 50 54 57 63 64 63 59 57 60 61
9 4 3 11 18 15 11 14 18 22 19 19 14 11 10 10 13 16 18 19 20 23 23 26 27 31 37 41 42 44 48 52 54 62 60 65 62 67 72 69 65 62 62 57
18 12 16 7 19 12 23 25 19 17 15 11 6 6 8 9 11 14 15 16 16 23 24 25 27 34 38 44 44 45 46 53 57 60 61 65 72 74 74 74 77 71 67 67
Wind_Direction_850mb
217 240 242 37 340 118 272 189 144 112 137 244 245 156 164 182 181 166 167 164 163 173 169 164 169 166 172 173 179 188 184 198 196 214 223 221 239 254 259 269 206 219 209 229
239 241 79 270 165 192 232 233 229 148 160 216 221 188 160 184 202 173 125 238 165 166 157 156 174 174 180 180 191 195 194 208 214 214 227 227 219 217 240 234 252 206 237 225
222 250 226 227 213 233 239 252 113 292 168 214 267 242 161 183 190 175 183 124 257 190 162 167 176 180 182 185 191 202 205 214 217 197 234 235 230 227 183 238 230 241 236 248
244 231 261 212 244 224 225 330 91 240 275 249 197 218 204 181 178 206 191 143 183 214 164 168 174 180 181 183 187 204 211 212 224 205 210 243 253 238 226 258 216 229 253 231
234 242 224 239 239 243 126 225 281 256 252 254 249 222 178 165 207 190 217 175 161 261 163 165 174 178 180 180 186 200 215 215 209 237 219 232 266 268 284 269 245 225 236 249
267 243 244 219 236 238 85 264 231 231 242 261 259 226 149 144 128 330 215 203 164 203 158 161 175 169 176 176 184 192 211 218 213 226 231 223 239 253 266 258 232 277 277 284
228 231 219 219 209 191 240 249 251 224 222 235 354 334 134 144 38 297 275 197 203 189 167 168 168 164 174 173 182 190 213 221 220 220 232 235 230 254 261 264 271 252 269 299
206 193 206 224 259 195 209 232 254 281 293 292 310 48 189 150 155 220 257 202 210 219 182 174 168 166 167 172 181 188 209 221 216 218 221 228 250 260 268 282 289 280 283 297
222 235 177 205 209 259 263 256 284 291 284 223 65 34 13 333 259 226 188 198 198 216 199 172 157 168 162 171 180 189 206 212 213 220 229 233 246 253 239 255 261 291 301 310
274 235 167 196 207 218 250 275 298 235 259 262 339 308 196 32 316 320 180 189 178 177 125 134 145 128 151 174 182 190 205 207 206 214 231 238 254 261 275 266 282 280 288 306
270 276 324 333 190 251 221 250 261 275 308 315 185 224 156 155 135 251 251 158 134 128 126 127 129 154 169 182 181 179 177 183 204 202 195 208 220 241 268 269 299 335 335 325
253 324 168 263 321 272 235 225 264 265 17 316 214 244 176 172 157 232 251 159 152 139 132 134 130 136 138 127 130 137 154 160 182 206 222 189 175 204 242 311 331 314 289 292
345 49 100 353 331 339 347 343 279 301 297 218 256 64 148 17 325 285 139 113 107 116 128 125 123 113 112 116 120 125 120 129 130 126 121 161 145 334 299 278 266 271 276 291
344 286 110 154 228 283 297 339 327 322 313 335 324 54 125 143 225 283 113 119 123 123 125 120 118 126 127 135 133 128 131 145 150 151 166 153 196 254 252 258 267 270 276 279
265 128 110 204 200 224 246 312 272 310 318 314 319 320 156 180 180 213 149 135 129 125 125 122 130 137 138 135 134 133 138 148 162 208 257 280 281 283 287 290 288 286 280 277
240 252 156 179 177 209 241 265 274 298 293 280 294 304 21 69 158 161 129 141 150 145 144 151 151 161 156 149 146 152 177 227 262 294 304 287 275 275 279 280 282 285 287 289
242 295 53 289 190 205 224 236 300 337 347 351 313 34 12 355 22 131 143 147 145 147 130 173 164 176 184 179 199 269 263 241 284 282 284 285 285 283 282 286 290 291 295 296
117 248 311 306 309 281 281 71 5 303 300 293 335 15 35 9 9 61 105 111 114 126 129 173 161 171 202 245 274 312 299 299 296 291 287 291 288 286 285 284 284 287 291 288
338 344 307 304 294 300 302 358 157 213 344 111 114 96 97 41 2 65 94 113 122 139 147 150 243 253 282 294 300 299 294 289 289 288 290 290 290 287 284 286 290 293 292 290
1 354 314 292 294 291 298 109 81 82 315 125 118 93 76 23 70 65 68 77 89 100 113 245 286 318 306 303 300 296 293 292 292 292 292 287 287 289 292 294 296 297 297 295
329 336 286 288 287 267 37 99 107 255 73 89 83 134 139 84 87 89 61 49 27 9 355 338 322 307 303 305 302 299 302 301 292 290 286 283 283 288 291 294 295 293 290 288
312 282 273 271 268 240 17 65 343 94 107 91 65 62 71 90 92 69 46 16 349 335 330 322 317 320 319 317 307 298 298 294 291 290 289 295 294 292 289 292 293 291 293 295
294 284 311 336 46 71 21 51 61 105 99 87 93 83 58 45 40 25 357 343 337 335 332 328 320 308 295 297 299 309 293 293 298 294 294 294 295 292 298 298 298 300 299 295
255 187 229 294 124 124 103 103 94 101 103 93 80 82 66 31 5 347 340 331 327 327 326 326 325 325 317 304 298 297 300 298 298 299 305 305 297 296 298 295 292 292 291 292
356 100 200 250 145 140 147 129 110 99 96 88 85 66 47 12 345 341 335 335 329 329 324 329 326 321 319 319 315 316 315 305 300 293 298 299 300 299 297 295 293 291 289 291
249 261 246 293 128 186 160 140 143 133 119 96 58 38 26 4 351 341 339 340 334 332 331 328 323 316 312 308 313 312 312 313 313 310 304 302 302 301 298 296 292 286 284 286